This is the latest recevied weather packets stored in our database for station/object N8QQQ. If no packets are shown the sender has not sent any weather packets the latest 10 day(s).
| Time | Temp. | Humidity | Pressure | Rain* | Wind** | Luminosity | Snow |
|---|---|---|---|---|---|---|---|
| 1778014267 | 5.56° C | 50% | 1007.4 hPa | 0 mm | - | 175 W/m² | - |
| 1778013964 | 5.56° C | 50% | 1007.3 hPa | 0 mm | - | 162 W/m² | - |
| 1778013662 | 6.11° C | 48% | 1006.9 hPa | 0 mm | - | 204 W/m² | - |
| 1778013358 | 6.11° C | 48% | 1006.8 hPa | 0 mm | - | 222 W/m² | - |
| 1778013056 | 5° C | 50% | 1007.1 hPa | 0 mm | - | 242 W/m² | - |
| 1778012751 | 5° C | 50% | 1007 hPa | 0 mm | - | 138 W/m² | - |
| 1778012447 | 5.56° C | 50% | 1006.9 hPa | 0 mm | - | 131 W/m² | - |
| 1778012144 | 5° C | 51% | 1007 hPa | 0 mm | - | 137 W/m² | - |
| 1778011842 | 5° C | 51% | 1006.9 hPa | 0 mm | - | 104 W/m² | - |
| 1778011540 | 5° C | 51% | 1006.8 hPa | 0 mm | - | 131 W/m² | - |
| 1778011237 | 5° C | 50% | 1006.7 hPa | 0 mm | - | 121 W/m² | - |
| 1778010932 | 5° C | 51% | 1006.5 hPa | 0 mm | - | 90 W/m² | - |
| 1778010630 | 5° C | 52% | 1006.5 hPa | 0 mm | - | 79 W/m² | - |
| 1778010327 | 5° C | 50% | 1006.3 hPa | 0 mm | - | 84 W/m² | - |
| 1778010022 | 5.56° C | 49% | 1006.5 hPa | 0 mm | - | 188 W/m² | - |
| 1778009720 | 5.56° C | 51% | 1006.4 hPa | 0 mm | - | 263 W/m² | - |
| 1778009417 | 5° C | 52% | 1006.5 hPa | 0 mm | - | 181 W/m² | - |
| 1778009116 | 5° C | 54% | 1006.5 hPa | 0 mm | - | 146 W/m² | - |
| 1778008813 | 5° C | 56% | 1006.5 hPa | 0 mm | - | 162 W/m² | - |
| 1778008511 | 4.44° C | 56% | 1006.4 hPa | 0 mm | - | 146 W/m² | - |
| 1778008209 | 4.44° C | 58% | 1006.6 hPa | 0 mm | - | 126 W/m² | - |
| 1778007903 | 3.89° C | 60% | 1006.5 hPa | 0 mm | - | 111 W/m² | - |
| 1778007599 | 3.89° C | 61% | 1006.5 hPa | 0 mm | - | 88 W/m² | - |
| 1778007296 | 3.89° C | 62% | 1006.5 hPa | 0 mm | - | 78 W/m² | - |
| 1778006992 | 3.89° C | 61% | 1006.3 hPa | 0 mm | - | 66 W/m² | - |
* Rain latest hour (hover to see other rain measurements)
** Current wind speed in m/s (hover to see current wind gust speed)